DW9584 Weather Reports


time (UTC)temp
F
wind
direction
speed
knots
gust
knots
rain 1hr
in
rain 24hr
in
rain mn
in
humidity
%
barometer
mb
20260504200024 71 165 1.7 6.1 0.00 0.00 0.00 35 1010.8
20260504194521 72 219 1.7 7.0 0.00 0.00 0.00 34 1010.8
20260504193016 71 218 0.0 5.2 0.00 0.00 0.00 36 1010.9
20260504191518 71 174 1.7 7.8 0.00 0.00 0.00 37 1011.0
20260504190013 71 157 1.7 6.1 0.00 0.00 0.00 35 1011.1
20260504184511 71 167 1.7 12.2 0.00 0.00 0.00 33 1011.4
20260504183028 71 128 0.9 7.8 0.00 0.00 0.00 34 1011.5
20260504181527 71 159 1.7 10.4 0.00 0.00 0.00 36 1011.8
20260504180024 71 179 1.7 5.2 0.00 0.00 0.00 35 1011.9
20260504174522 70 281 0.0 6.1 0.00 0.00 0.00 38 1012.1
20260504173031 70 293 1.7 7.8 0.00 0.00 0.00 33 1012.4
20260504171522 70 232 0.9 5.2 0.00 0.00 0.00 32 1012.6
20260504081515 40 210 0.0 0.0 0.00 0.00 0.00 87 1015.3
20260504044536 41 208 0.0 0.0 0.00 0.00 0.00 79 1015.2
20260504043021 42 208 0.0 0.0 0.00 0.00 0.00 79 1014.9
20260504041529 42 208 0.0 0.0 0.00 0.00 0.00 78 1014.8
20260504040032 42 208 0.0 0.0 0.00 0.00 0.00 75 1014.6
20260504034538 43 208 0.0 0.0 0.00 0.00 0.00 75 1014.5
20260504033036 43 208 0.0 0.0 0.00 0.00 0.00 74 1014.5
20260504031503 44 208 0.0 0.0 0.00 0.00 0.00 71 1014.4
20260504030004 44 208 0.0 0.0 0.00 0.00 0.00 70 1014.4
20260504024505 45 208 0.0 0.0 0.00 0.00 0.00 68 1014.4
20260504023004 45 208 0.0 0.0 0.00 0.00 0.00 65 1014.5
20260504021504 46 208 0.0 0.0 0.00 0.00 0.00 65 1014.4
20260504020008 46 208 0.0 0.0 0.00 0.00 0.00 62 1014.3
20260504014505 47 208 0.0 0.0 0.00 0.00 0.00 60 1014.2
20260504013009 48 208 0.0 0.0 0.00 0.00 0.00 59 1014.1
20260504011504 49 208 0.0 0.0 0.00 0.00 0.00 55 1013.9
20260504010008 50 208 0.0 0.0 0.00 0.00 0.00 52 1013.8
20260504004510 51 208 0.0 0.0 0.00 0.00 0.00 51 1013.7
20260504003007 52 208 0.0 0.0 0.00 0.00 0.00 48 1013.4
20260504001508 53 208 0.0 0.0 0.00 0.00 0.00 43 1013.1
20260504000009 55 208 0.0 0.9 0.00 0.00 0.00 40 1013.1
20260503234508 56 221 0.0 1.7 0.00 0.00 0.00 37 1013.0
20260503233009 57 335 0.0 2.6 0.00 0.00 0.00 38 1012.8
20260503231510 57 311 0.0 7.8 0.00 0.00 0.00 35 1012.8
20260503230010 58 291 0.0 5.2 0.00 0.00 0.00 34 1012.7
20260503224507 59 314 0.9 2.6 0.00 0.00 0.00 33 1012.7
20260503223012 59 290 0.9 6.1 0.00 0.00 0.00 33 1012.5
20260503221510 59 138 1.7 8.7 0.00 0.00 0.00 31 1012.5
20260503220012 59 289 1.7 6.1 0.00 0.00 0.00 31 1012.5
20260503214514 59 303 2.6 7.0 0.00 0.00 0.00 31 1012.5
20260503213025 59 96 1.7 8.7 0.00 0.00 0.00 30 1012.4
20260503211518 59 311 0.9 7.8 0.00 0.00 0.00 32 1012.5
20260503210014 59 290 0.9 7.0 0.00 0.00 0.00 32 1012.6
20260503204515 59 284 0.9 9.6 0.00 0.00 0.00 35 1012.6
20260503203016 59 278 1.7 6.1 0.00 0.00 0.00 34 1012.5
20260503201527 59 302 1.7 6.1 0.00 0.00 0.00 33 1012.9